Theta_e
310 311 312 313 314 313 311 311 311 311 312 314 315 316 318 321 320 319 317 316 315 315 315 314 315 317 307 298 298 312 322 319 308 305 302 298 295 294 291 293 294 291 292 293 293 293 291
310 310 310 310 312 314 313 311 311 311 310 311 313 314 315 317 321 319 318 317 315 314 314 314 315 316 300 290 308 315 311 308 306 303 302 299 296 297 293 292 292 292 292 293 293 292 291
308 309 310 310 310 312 313 314 311 311 311 310 310 312 313 315 319 320 319 318 316 315 315 314 314 311 299 295 305 310 309 305 306 303 300 302 300 295 294 290 296 294 289 290 291 291 290
309 310 309 310 310 309 311 312 313 311 311 310 310 310 311 313 316 320 318 318 317 316 315 314 314 305 293 303 302 305 306 303 305 305 303 302 301 298 295 295 291 289 290 284 289 291 292
308 308 309 309 310 310 310 310 311 312 312 311 310 310 310 312 314 317 318 317 317 316 315 314 302 298 292 307 299 303 304 301 303 303 302 304 300 294 294 287 285 285 280 284 287 291 291
307 308 308 308 308 309 309 310 309 311 312 311 310 310 309 311 312 314 318 317 316 313 312 311 306 293 296 294 299 301 302 304 300 299 298 296 293 288 287 284 279 281 280 283 283 288 289
308 307 308 308 308 310 309 309 309 309 310 311 311 309 308 309 311 313 316 309 302 299 302 295 294 293 296 300 303 300 302 301 300 295 288 292 286 283 287 287 285 285 283 281 284 288 286
306 306 307 307 307 308 308 309 308 309 309 310 311 310 308 308 310 311 312 303 304 305 296 300 299 297 299 300 295 298 303 295 293 287 290 288 284 289 289 289 286 285 283 283 285 287 285
306 305 306 306 306 307 307 307 307 307 309 309 310 310 308 307 308 307 307 306 306 309 300 299 300 298 298 298 295 294 299 295 291 288 288 285 286 290 289 287 286 284 283 283 282 286 285
304 304 305 305 305 305 306 307 307 307 308 308 309 309 309 307 300 304 305 308 308 311 292 292 295 299 298 299 292 300 300 295 290 287 288 287 290 288 287 286 287 283 287 286 285 281 278
303 303 303 304 304 304 305 305 305 306 307 307 308 308 308 307 300 301 306 307 308 306 278 292 293 301 298 294 294 295 300 294 288 288 288 285 287 285 285 286 288 285 287 285 284 281 280
302 302 303 302 303 303 303 304 304 305 306 306 307 308 308 304 298 301 308 307 306 286 277 288 291 289 290 293 293 295 295 295 294 289 288 285 289 287 286 288 287 289 289 287 283 281 272
302 301 301 302 302 302 303 303 304 304 304 305 306 307 305 303 293 301 305 303 285 279 288 286 286 289 289 287 290 292 289 286 284 280 279 284 285 287 288 285 288 287 283 273 272 268 273
301 301 301 301 301 302 302 302 303 302 303 303 304 305 304 303 303 303 300 290 277 281 285 289 288 288 285 288 289 290 287 285 289 284 278 279 275 285 288 286 285 284 282 277 271 271 275
300 300 300 300 301 301 302 302 301 302 302 303 302 299 298 302 302 299 293 281 282 283 288 286 288 284 285 288 288 288 286 285 287 286 281 279 280 286 287 287 287 284 280 285 277 271 275
298 299 297 297 300 300 301 301 301 301 302 302 295 293 293 302 302 296 284 281 284 290 291 289 283 286 282 285 284 285 284 288 288 290 293 286 280 282 285 287 287 283 286 278 277 270 271
297 298 297 298 299 299 299 300 300 301 301 302 293 285 293 301 300 288 278 280 285 292 292 288 285 285 286 284 285 284 284 289 291 290 294 289 285 280 284 282 282 282 280 282 283 280 275
296 298 297 298 298 299 299 299 300 300 300 298 290 280 293 300 285 284 280 281 288 289 293 292 289 288 287 286 285 285 284 288 293 291 287 292 286 279 281 285 286 285 283 284 280 275 277
295 295 298 297 297 299 299 299 299 300 300 293 285 285 294 296 279 281 282 283 285 286 290 291 288 291 289 287 284 287 287 291 292 291 289 292 284 277 280 284 283 281 282 284 285 282 277
295 296 297 297 298 298 298 298 298 299 300 294 284 279 285 289 287 282 280 280 279 286 287 291 290 290 289 287 289 286 287 288 291 292 296 295 285 283 281 282 282 278 281 284 284 278 278
296 296 296 297 297 296 298 298 298 299 300 294 284 281 282 277 281 283 283 282 280 279 285 290 288 290 287 281 283 285 285 286 289 294 293 291 281 281 280 282 282 282 283 284 281 282 282
295 296 295 296 297 298 298 298 298 299 300 289 282 281 283 276 283 283 283 280 281 282 284 284 285 287 290 284 287 282 286 285 286 288 288 287 277 279 278 280 282 281 282 284 284 279 276
294 295 294 295 297 297 297 297 298 298 299 286 288 287 283 281 277 281 280 281 281 284 286 288 289 287 286 290 290 291 292 290 289 288 287 286 280 278 277 278 280 280 279 282 282 282 284
294 294 294 295 297 296 297 297 297 298 298 290 288 286 281 275 280 279 282 283 282 282 282 287 291 289 291 297 294 293 291 290 291 290 292 284 283 282 276 278 274 282 284 285 284 285 285
294 293 296 296 297 296 296 297 297 298 298 290 288 288 283 275 280 281 282 282 283 284 283 285 289 295 296 293 285 283 282 281 282 286 289 290 285 276 274 272 278 281 282 282 283 283 287
293 293 295 294 295 296 296 297 297 298 298 292 290 289 286 277 278 284 282 283 281 281 283 284 290 296 295 289 283 278 276 278 279 280 287 287 287 281 271 271 270 280 285 287 287 280 287
292 291 294 295 295 295 295 296 297 297 298 293 289 290 286 280 282 285 282 282 286 285 284 286 289 290 294 284 282 279 276 279 278 278 281 281 281 279 274 266 275 282 285 287 278 281 288
292 292 292 294 295 294 295 296 297 297 298 293 289 292 288 278 280 286 287 284 285 285 282 282 285 284 288 285 283 280 277 278 276 280 282 280 278 277 274 266 272 285 285 283 287 288 288
292 292 293 293 293 294 295 295 297 297 297 295 287 292 293 285 283 289 289 289 288 291 287 287 286 285 288 285 282 279 275 275 276 278 283 279 283 280 281 280 285 288 286 289 290 289 287
Wind_Speed
16 18 18 16 16 13 14 13 12 12 14 11 10 12 13 10 11 10 10 8 5 4 4 4 6 7 2 1 8 2 6 5 4 4 3 3 4 5 5 4 3 4 4 3 2 5 6
18 16 19 19 18 16 16 14 13 13 13 13 11 12 11 14 12 12 11 8 6 4 3 4 4 5 2 4 2 6 7 5 2 3 4 2 4 3 2 3 6 3 2 6 6 5 4
21 23 19 20 20 18 16 17 15 14 13 13 13 11 12 15 14 13 11 10 7 4 3 3 4 0 2 11 2 6 7 5 3 2 3 3 1 2 0 1 0 1 5 7 6 3 5
23 24 23 19 20 20 19 18 17 15 14 12 13 12 12 12 10 13 12 9 7 6 3 3 2 1 7 2 1 6 4 3 3 3 2 2 2 2 1 1 2 0 2 4 1 5 2
24 24 23 23 21 21 21 20 18 16 15 13 11 11 12 12 13 11 13 10 5 5 4 1 2 1 9 2 3 5 4 5 5 1 2 3 3 3 2 4 3 1 4 5 5 5 3
23 26 26 27 26 24 22 21 20 18 16 14 12 11 12 11 12 15 14 11 7 3 3 3 2 2 4 4 3 5 4 6 3 5 4 3 4 3 1 5 8 8 5 5 5 3 2
30 24 30 29 28 25 22 22 21 19 18 18 14 12 12 12 11 13 11 7 5 1 6 10 9 4 1 2 2 3 4 5 4 4 6 3 4 11 19 8 0 5 2 2 2 2 2
31 30 29 29 28 28 26 23 21 22 21 18 18 15 12 12 11 11 7 6 4 3 3 12 4 6 3 3 2 4 7 6 6 6 5 4 10 11 6 6 6 2 1 4 3 0 2
31 32 31 31 30 29 28 26 25 23 22 19 14 18 14 11 12 7 8 9 4 2 2 5 8 8 5 7 6 10 11 5 4 7 9 8 5 9 9 6 7 4 5 3 3 1 1
33 33 32 31 30 29 29 27 25 23 21 19 16 14 16 9 4 4 6 9 7 3 6 6 8 10 9 4 6 8 9 6 4 10 8 5 4 5 6 7 8 5 7 5 3 4 4
35 34 33 32 30 28 28 28 26 26 22 20 18 13 18 17 2 3 1 13 8 4 8 8 6 3 10 15 4 5 4 4 8 8 9 9 5 6 5 5 7 5 3 7 4 4 3
35 34 34 29 32 28 27 26 25 24 24 21 18 16 19 11 3 3 3 10 5 7 9 7 6 9 12 14 5 4 5 0 3 4 2 3 1 2 5 3 3 9 7 9 6 4 2
37 33 30 32 30 27 28 28 25 22 23 21 21 17 15 6 5 9 7 8 8 15 3 9 9 11 15 10 9 4 14 10 9 7 5 2 2 1 3 6 4 5 6 4 4 4 7
39 35 31 31 28 29 29 26 26 26 24 23 20 21 11 10 5 8 6 9 12 5 12 5 9 15 13 14 10 12 9 15 12 4 5 9 4 8 5 5 8 6 6 8 9 5 4
33 33 30 30 29 27 26 27 25 25 23 20 20 9 7 11 10 4 5 16 10 15 16 11 13 14 6 10 10 7 11 15 11 10 9 7 5 3 2 1 4 7 6 4 8 2 4
29 31 23 32 28 29 27 28 26 25 25 23 7 8 13 11 14 8 8 22 9 8 10 13 8 7 12 20 9 15 18 15 13 12 3 5 5 1 2 1 1 3 5 4 3 4 4
36 31 25 25 28 28 25 29 27 26 26 24 8 6 6 12 11 8 16 18 14 9 2 16 10 10 9 15 15 14 19 5 24 20 8 3 3 1 3 7 8 4 3 3 5 5 7
25 31 29 30 26 29 28 23 27 30 26 21 10 9 5 16 15 5 12 24 18 9 14 4 5 5 12 15 16 12 17 15 24 15 22 6 4 5 4 2 3 2 6 7 7 6 2
19 26 31 22 21 31 27 28 30 27 30 11 9 6 4 18 19 16 5 18 17 19 11 8 7 5 5 12 9 13 11 3 14 18 24 15 6 5 3 5 3 5 5 4 4 3 8
19 23 28 25 25 28 28 29 29 30 32 13 6 8 7 13 12 19 13 15 21 19 6 9 4 5 8 7 1 13 9 2 5 11 16 16 3 6 10 4 10 8 8 8 5 4 6
22 25 22 24 26 23 28 26 30 32 31 15 11 9 8 9 16 22 20 15 23 19 19 14 8 11 7 7 3 5 5 6 4 15 9 13 8 4 3 3 3 5 13 17 12 7 12
22 23 21 23 25 28 27 27 27 29 31 15 9 12 2 6 20 23 25 18 26 24 19 25 18 18 9 7 14 14 13 6 9 4 14 5 3 5 0 2 0 4 7 20 18 4 4
23 22 23 22 22 25 25 26 29 32 31 8 7 4 11 11 5 16 18 24 23 21 14 27 24 19 21 17 1 3 6 9 11 14 21 13 6 3 4 2 3 6 12 14 10 5 13
24 24 24 28 29 25 24 27 29 30 32 8 4 4 4 7 10 15 20 22 27 26 28 18 17 17 13 15 9 11 9 5 6 4 9 9 6 4 3 3 3 6 1 10 10 13 6
20 25 32 29 31 24 23 26 27 28 36 10 3 6 3 5 12 12 18 18 16 14 26 27 22 12 13 13 5 6 2 4 2 4 13 14 9 5 6 4 5 3 6 10 10 9 16
17 13 17 13 21 22 20 23 24 23 26 7 7 3 3 5 9 7 18 24 17 14 17 25 4 14 15 5 4 7 7 7 8 4 4 5 6 5 3 7 11 6 5 7 5 4 13
15 3 15 24 18 17 19 22 23 25 23 8 4 5 4 2 3 5 6 15 17 14 17 7 13 15 22 7 7 5 4 6 10 14 13 8 4 9 5 3 8 7 7 6 7 8 7
17 10 15 17 19 16 20 21 22 22 23 8 3 9 6 3 2 7 10 8 11 16 12 7 6 3 15 17 11 3 3 6 5 7 13 10 11 6 3 4 9 8 8 11 6 1 6
18 17 16 16 17 18 20 20 23 24 24 14 3 6 4 1 1 4 5 5 11 23 19 6 6 6 7 8 4 5 3 3 7 8 2 5 8 9 9 7 0 10 3 4 5 7 6
Wind_Direction
306 309 305 310 302 287 291 296 297 301 295 315 338 334 339 319 241 242 244 238 226 245 280 309 324 330 335 288 253 160 137 130 117 130 177 172 139 145 178 203 174 208 268 264 275 287 262
301 292 299 300 299 306 284 280 286 291 296 294 316 327 337 339 246 236 236 229 226 225 258 298 323 341 278 245 136 148 136 127 152 143 166 173 194 189 234 210 168 199 260 277 287 274 265
290 296 285 285 289 290 298 280 268 277 285 293 285 313 318 334 329 216 225 218 208 204 245 285 314 42 293 245 164 155 150 175 167 175 165 199 212 152 262 275 252 187 313 312 238 231 224
292 294 288 280 279 282 287 291 281 260 271 279 283 279 310 313 304 232 209 209 196 182 196 268 313 166 245 290 137 145 181 166 194 212 261 230 113 137 145 301 28 92 85 313 202 139 181
284 284 283 284 282 276 275 280 285 286 257 256 265 279 286 303 321 307 194 189 193 192 177 167 99 170 265 326 149 207 154 157 135 167 279 112 86 161 73 94 6 319 221 209 299 196 112
273 276 273 271 272 276 272 270 272 280 276 250 245 262 272 291 310 322 179 164 124 30 240 138 255 3 261 224 199 171 191 146 138 123 65 96 63 119 81 146 209 193 209 228 233 195 162
281 266 270 271 269 261 264 268 266 267 271 261 236 240 261 268 285 301 158 124 101 159 243 182 185 225 47 308 111 147 159 136 101 97 160 208 137 202 207 191 35 145 171 211 229 188 196
277 276 271 270 266 265 260 256 253 261 261 262 247 228 238 258 274 289 254 188 192 147 202 232 246 253 188 261 128 208 133 154 148 176 143 96 234 217 162 196 225 300 112 255 289 243 210
280 275 271 268 266 263 261 257 254 249 254 250 257 235 225 243 271 282 243 201 146 122 239 184 199 195 192 156 225 198 155 166 152 162 180 173 225 175 173 174 195 221 190 203 207 333 244
276 276 273 268 266 265 262 259 256 248 250 250 239 240 209 209 265 234 229 151 125 55 242 206 210 232 149 181 248 180 176 150 190 186 156 245 245 155 168 193 150 192 198 167 145 80 228
275 271 268 264 264 260 262 255 253 251 242 235 234 235 215 184 191 232 223 149 137 86 241 147 160 139 156 157 162 218 166 139 176 177 139 230 192 162 170 190 164 210 142 156 118 104 44
270 271 267 260 260 256 255 248 250 251 244 234 224 224 212 212 166 235 207 151 138 208 238 171 156 168 160 182 160 119 151 133 165 135 68 187 286 206 178 104 168 147 80 49 53 78 15
265 260 267 267 254 251 248 253 237 251 236 243 232 218 216 178 194 194 199 181 204 199 166 181 186 177 171 164 158 176 179 186 167 125 176 130 215 282 169 86 31 89 94 22 4 8 216
271 258 264 254 251 251 242 239 244 228 255 216 249 236 220 199 175 137 169 204 228 171 184 108 153 157 179 139 188 169 188 204 229 107 121 157 235 175 188 193 173 177 165 158 193 190 212
266 255 249 249 247 241 234 241 233 233 224 238 211 246 228 199 193 122 207 229 188 181 190 148 136 147 184 169 136 141 185 211 213 178 153 145 215 325 63 91 135 183 199 166 104 33 69
268 273 258 287 238 237 233 233 230 231 231 221 202 240 226 182 177 172 207 226 196 221 144 148 150 169 174 177 146 169 165 188 218 198 166 200 106 336 347 117 27 163 167 85 0 134 230
268 251 259 250 247 237 227 242 229 226 224 220 197 201 222 169 182 190 195 218 230 238 191 171 175 163 187 176 170 188 189 183 195 195 129 155 76 248 144 211 175 152 192 194 125 154 164
268 284 253 238 261 238 234 237 226 221 224 216 202 203 225 162 210 203 200 200 222 245 234 241 164 139 173 175 175 188 206 176 191 161 180 176 112 174 181 279 331 303 204 182 147 228 207
246 270 250 238 222 243 235 218 228 222 213 200 204 197 222 183 215 214 157 212 199 216 218 174 205 204 159 167 167 191 184 209 169 175 167 163 191 114 94 350 341 228 215 224 115 89 191
274 278 255 235 237 237 226 221 219 215 218 193 180 221 188 194 222 211 191 200 204 213 226 186 277 166 147 159 182 179 158 98 172 174 143 152 162 201 195 167 143 192 197 205 160 173 155
253 257 258 246 233 230 231 223 219 214 211 199 182 209 197 192 217 209 192 198 201 213 208 195 211 232 166 144 126 161 133 135 39 149 143 157 195 141 349 328 126 171 189 192 203 170 194
271 274 267 248 235 222 222 218 213 218 209 213 177 216 248 172 200 206 182 205 201 199 186 208 216 214 252 171 188 187 155 168 163 187 153 199 177 122 92 344 333 207 222 206 209 191 67
272 253 262 257 229 231 221 214 213 207 209 211 199 259 181 225 189 221 197 189 200 199 230 202 204 214 209 230 329 124 168 146 163 176 179 177 135 128 182 44 2 294 206 192 195 197 169
269 260 263 253 235 222 217 217 216 209 207 193 163 124 207 200 199 214 209 199 198 203 205 214 212 187 203 180 80 54 41 104 112 93 154 130 97 34 129 101 183 250 275 185 180 206 190
299 277 259 221 222 218 217 220 222 213 197 181 165 186 143 218 206 215 208 201 207 217 215 208 211 202 154 131 115 137 172 81 64 137 200 181 153 135 161 191 310 236 191 157 168 229 200
262 301 247 224 228 212 212 216 215 217 205 134 167 163 115 117 223 186 201 197 196 206 223 216 222 169 170 141 144 172 174 145 165 157 348 143 184 116 135 153 205 232 200 154 140 284 179
274 213 270 205 205 207 214 216 208 210 213 159 152 135 119 207 186 114 234 196 199 182 206 170 189 187 177 179 180 144 171 155 158 167 173 158 126 188 175 190 280 227 149 163 122 232 152
254 246 208 218 219 216 215 210 213 208 203 164 102 177 163 175 223 179 186 208 235 201 184 157 133 208 189 202 201 143 125 199 107 156 169 164 152 172 114 102 258 166 107 166 191 66 140
248 257 249 240 229 221 207 219 208 203 195 160 156 172 157 152 158 229 212 212 242 219 200 160 164 165 171 164 159 108 132 142 154 172 173 154 179 166 179 199 242 189 127 160 142 139 148